Time,TemperatureF,DewpointF,PressureIn,WindDirection,WindDirectionDegrees,WindSpeedMPH,WindSpeedGustMPH,Humidity,HourlyPrecipIn,Conditions,Clouds,dailyrainin,SolarRadiationWatts/m^2,SoftwareType,DateUTC
2013-08-27 00:05:00,72.0,64.0,-100.00,East,80,3.0,5.0,75,0.00,,,0.01,0.000000,,2013-08-27 05:05:00,
2013-08-27 00:43:00,70.0,63.0,-100.00,ESE,107,1.0,5.0,79,0.00,,,0.01,0.000000,,2013-08-27 05:43:00,
2013-08-27 00:52:00,70.0,63.0,-100.00,ESE,107,1.0,5.0,79,0.00,,,0.01,0.000000,,2013-08-27 05:52:00,
2013-08-27 01:02:00,70.0,63.0,-100.00,ESE,107,1.0,5.0,79,0.00,,,0.01,0.000000,,2013-08-27 06:02:00,
2013-08-27 01:42:00,68.0,64.0,-100.00,ESE,123,0.0,3.0,88,0.00,,,0.01,0.000000,,2013-08-27 06:42:00,
2013-08-27 01:52:00,68.0,64.0,-100.00,ESE,123,0.0,3.0,88,0.00,,,0.01,0.000000,,2013-08-27 06:52:00,
2013-08-27 02:02:00,68.0,64.0,-100.00,ESE,123,0.0,3.0,88,0.00,,,0.01,0.000000,,2013-08-27 07:02:00,
2013-08-27 02:42:00,66.0,63.0,-100.00,ENE,57,0.0,0.0,90,0.00,,,0.01,0.000000,,2013-08-27 07:42:00,
2013-08-27 02:52:00,66.0,63.0,-100.00,ENE,57,0.0,0.0,90,0.00,,,0.01,0.000000,,2013-08-27 07:52:00,
2013-08-27 03:02:00,66.0,63.0,-100.00,ENE,57,0.0,0.0,90,0.00,,,0.01,0.000000,,2013-08-27 08:02:00,
2013-08-27 03:42:00,65.0,62.0,-100.00,SSE,158,0.0,0.0,91,0.00,,,0.01,0.000000,,2013-08-27 08:42:00,
2013-08-27 03:52:00,65.0,62.0,-100.00,SSE,158,0.0,0.0,91,0.00,,,0.01,0.000000,,2013-08-27 08:52:00,
2013-08-27 04:01:00,65.0,62.0,-100.00,SSE,158,0.0,0.0,91,0.00,,,0.01,0.000000,,2013-08-27 09:01:00,
2013-08-27 04:43:00,66.0,62.0,-100.00,NNE,33,0.0,2.0,87,0.00,,,0.01,0.000000,,2013-08-27 09:43:00,
2013-08-27 04:54:00,66.0,62.0,-100.00,NNE,33,0.0,2.0,87,0.00,,,0.01,0.000000,,2013-08-27 09:54:00,
2013-08-27 05:05:00,66.0,62.0,-100.00,NNE,33,0.0,2.0,87,0.00,,,0.01,0.000000,,2013-08-27 10:05:00,
2013-08-27 05:43:00,64.0,62.0,-100.00,ENE,57,0.0,3.0,92,0.00,,,0.00,0.000000,,2013-08-27 10:43:00,
2013-08-27 05:53:00,64.0,62.0,-100.00,ENE,57,0.0,3.0,92,0.00,,,0.00,0.000000,,2013-08-27 10:53:00,
2013-08-27 06:03:00,64.0,62.0,-100.00,ENE,57,0.0,3.0,92,0.00,,,0.00,0.000000,,2013-08-27 11:03:00,
2013-08-27 06:42:00,64.0,62.0,-100.00,SW,234,0.0,0.0,92,0.00,,,0.00,0.000000,,2013-08-27 11:42:00,
2013-08-27 06:52:00,64.0,62.0,-100.00,SW,234,0.0,0.0,92,0.00,,,0.00,0.000000,,2013-08-27 11:52:00,
2013-08-27 07:02:00,64.0,62.0,-100.00,SW,234,0.0,0.0,92,0.00,,,0.00,0.000000,,2013-08-27 12:02:00,
2013-08-27 07:42:00,64.0,62.0,-100.00,NNE,13,0.0,2.0,93,0.00,,,0.00,11.000000,,2013-08-27 12:42:00,
2013-08-27 07:52:00,64.0,62.0,-100.00,NNE,13,0.0,2.0,93,0.00,,,0.00,11.000000,,2013-08-27 12:52:00,
2013-08-27 08:01:00,64.0,62.0,-100.00,NNE,13,0.0,2.0,93,0.00,,,0.00,11.000000,,2013-08-27 13:01:00,
2013-08-27 08:42:00,71.0,65.0,-100.00,NNE,28,2.0,4.0,82,0.00,,,-99.99,124.000000,,2013-08-27 13:42:00,
2013-08-27 08:52:00,71.0,65.0,-100.00,NNE,28,2.0,4.0,82,0.00,,,-99.99,124.000000,,2013-08-27 13:52:00,
2013-08-27 09:02:00,71.0,65.0,-100.00,NNE,28,2.0,4.0,82,0.00,,,-99.99,124.000000,,2013-08-27 14:02:00,
2013-08-27 09:42:00,76.0,66.0,-100.00,ENE,57,3.0,5.0,71,0.00,,,0.00,291.000000,,2013-08-27 14:42:00,
2013-08-27 09:53:00,76.0,66.0,-100.00,ENE,57,3.0,5.0,71,0.00,,,0.00,291.000000,,2013-08-27 14:53:00,
2013-08-27 10:01:00,76.0,66.0,-100.00,ENE,57,3.0,5.0,71,0.00,,,0.00,291.000000,,2013-08-27 15:01:00,
2013-08-27 10:09:00,79.0,64.0,-100.00,East,79,4.0,7.0,61,0.00,,,0.00,474.000000,,2013-08-27 15:09:00,
2013-08-27 10:45:00,79.0,64.0,-100.00,East,79,4.0,7.0,61,0.00,,,0.00,474.000000,,2013-08-27 15:45:00,
2013-08-27 10:58:00,79.0,64.0,-100.00,East,79,4.0,7.0,61,0.00,,,0.00,474.000000,,2013-08-27 15:58:00,
2013-08-27 11:46:00,83.0,65.0,-100.00,NE,40,3.0,7.0,54,0.00,,,0.00,670.000000,,2013-08-27 16:46:00,
2013-08-27 11:55:00,83.0,65.0,-100.00,NE,40,3.0,7.0,54,0.00,,,0.00,670.000000,,2013-08-27 16:55:00,
2013-08-27 12:04:00,83.0,65.0,-100.00,NE,40,3.0,7.0,54,0.00,,,0.00,670.000000,,2013-08-27 17:04:00,
2013-08-27 12:43:00,83.0,64.0,-100.00,NE,45,3.0,10.0,53,0.00,,,0.00,692.000000,,2013-08-27 17:43:00,
2013-08-27 12:52:00,83.0,64.0,-100.00,NE,45,3.0,10.0,53,0.00,,,0.00,692.000000,,2013-08-27 17:52:00,
2013-08-27 13:02:00,83.0,64.0,-100.00,NE,45,3.0,10.0,53,0.00,,,0.00,692.000000,,2013-08-27 18:02:00,
2013-08-27 13:42:00,85.0,64.0,-100.00,NNE,12,3.0,10.0,50,0.00,,,0.00,792.000000,,2013-08-27 18:42:00,
2013-08-27 13:53:00,85.0,64.0,-100.00,NNE,12,3.0,10.0,50,0.00,,,0.00,792.000000,,2013-08-27 18:53:00,
2013-08-27 14:01:00,85.0,64.0,-100.00,NNE,12,3.0,10.0,50,0.00,,,0.00,792.000000,,2013-08-27 19:01:00,
2013-08-27 14:42:00,86.0,64.0,-100.00,NNE,16,3.0,8.0,48,0.00,,,0.00,771.000000,,2013-08-27 19:42:00,
2013-08-27 14:52:00,86.0,64.0,-100.00,NNE,16,3.0,8.0,48,0.00,,,0.00,771.000000,,2013-08-27 19:52:00,
2013-08-27 15:02:00,86.0,64.0,-100.00,NNE,16,3.0,8.0,48,0.00,,,0.00,771.000000,,2013-08-27 20:02:00,